Theta_e
299 300 308 307 319 304 304 307 302 303 308 303 299 302 301 304 300 299 305 305 307 310 313 319 324 324 324 326 325 324 324 325 327 329 331 332 331 328 328 330 331 333 334 336 338 339 339 340 340 341 342 343 344 345 344 345 345 346 345 347 347 348 348
300 301 304 313 302 305 303 300 305 302 303 301 296 293 290 290 292 291 302 301 300 301 299 319 322 323 323 323 325 325 325 325 325 327 330 332 332 330 329 330 332 333 335 336 338 339 340 340 341 341 343 344 345 345 345 344 345 345 345 346 347 347 347
298 298 301 300 301 299 309 308 310 298 295 296 293 297 288 289 288 287 293 298 299 301 306 318 319 320 322 323 323 325 324 325 325 327 328 331 333 332 329 329 331 332 334 336 338 339 340 341 343 343 344 345 345 345 346 345 345 346 346 346 347 348 348
298 296 295 294 291 296 297 299 297 297 294 290 292 294 294 293 287 289 287 293 297 312 314 319 319 322 323 324 322 323 325 326 326 326 327 329 331 331 330 330 330 332 334 336 338 339 340 341 342 343 344 346 345 346 347 346 346 347 347 347 348 347 348
296 292 295 293 294 294 291 292 292 295 294 295 294 294 292 291 288 287 286 288 298 312 321 321 322 324 325 324 323 323 326 327 328 328 328 329 331 331 331 331 331 332 333 335 338 340 341 342 344 345 345 346 346 346 346 347 346 346 346 347 347 348 349
292 295 297 297 294 295 294 291 291 290 289 291 289 287 289 294 291 285 287 287 296 315 323 323 324 326 326 327 324 324 326 329 331 331 331 331 332 332 332 332 332 333 334 336 338 340 341 341 344 344 345 347 347 347 347 347 347 347 347 347 347 348 349
296 298 299 300 300 297 295 301 304 296 290 289 284 283 287 291 295 297 292 294 302 319 323 325 327 328 328 328 328 326 327 329 330 332 333 335 334 333 333 333 334 335 336 336 337 338 339 340 342 344 345 346 347 348 348 348 347 347 348 348 349 349 349
296 297 298 299 301 300 300 298 305 305 303 291 290 287 287 289 293 295 294 293 299 318 324 325 327 329 330 330 329 328 328 329 330 331 334 334 334 335 336 337 337 338 339 339 338 337 338 339 341 343 344 345 347 348 348 349 348 348 349 350 349 349 349
289 293 297 295 298 298 295 296 304 307 306 302 293 292 292 291 291 294 290 289 299 317 323 325 326 328 328 328 329 329 327 329 330 330 332 334 334 333 334 335 336 338 338 338 338 339 338 339 341 343 344 345 346 347 348 349 349 349 349 351 350 350 350
284 285 283 287 290 293 296 301 309 310 309 303 294 293 291 287 298 300 296 298 309 319 321 322 324 326 327 329 329 330 330 330 330 331 332 333 333 333 333 335 337 336 337 338 338 338 339 340 340 341 342 344 346 348 349 350 350 350 351 352 351 350 350
286 289 292 296 299 299 301 305 307 308 310 307 296 289 288 287 299 303 306 309 310 314 317 319 321 324 325 326 327 327 329 330 331 332 332 332 332 333 333 335 335 336 337 338 339 339 339 340 341 341 343 344 346 347 349 351 352 352 352 352 352 351 351
296 297 296 304 307 303 303 304 305 309 309 308 303 293 293 296 300 295 308 313 311 312 316 318 320 322 325 327 326 327 328 329 329 329 331 333 332 333 333 333 334 335 336 338 338 339 339 340 341 342 343 342 345 346 348 349 351 352 352 353 352 352 352
301 302 303 306 306 305 305 305 306 307 309 310 306 305 303 301 293 297 310 314 311 313 317 320 322 323 326 326 326 327 329 330 329 329 329 330 330 331 332 332 333 334 334 336 337 338 339 339 339 339 340 341 344 346 348 349 350 351 352 352 352 352 352
301 301 305 306 305 304 304 303 305 307 309 311 312 311 312 312 311 313 313 313 312 315 317 321 324 328 328 328 330 329 328 327 328 327 327 329 330 332 332 333 334 334 335 336 337 337 338 339 339 340 341 342 343 345 346 348 349 350 350 351 351 351 351
300 302 306 304 302 303 302 302 303 306 309 311 311 312 313 315 313 314 313 312 311 317 320 322 328 329 328 327 325 326 327 328 328 327 327 328 329 330 332 333 334 335 336 337 337 338 338 339 339 340 341 342 344 345 347 348 349 349 349 348 346 344 344
295 299 303 301 299 300 300 300 301 302 306 306 309 309 312 309 309 311 311 309 309 317 321 325 325 323 322 321 321 323 325 327 327 327 328 329 329 329 330 333 333 334 335 335 336 338 339 340 341 341 341 342 344 344 346 347 348 349 346 343 341 343 343
290 297 301 299 298 293 291 296 299 301 306 309 312 313 315 313 311 304 303 308 316 318 322 320 319 319 319 318 319 319 322 324 325 324 325 326 329 331 331 332 333 333 334 334 335 337 338 339 339 341 343 342 342 344 345 347 348 345 343 342 342 342 343
287 295 297 298 293 287 286 299 304 303 306 308 308 309 312 316 315 311 315 315 318 319 320 317 315 315 316 318 319 320 320 322 323 323 323 325 326 329 332 333 333 333 334 334 333 334 335 338 339 341 342 343 343 345 347 347 345 343 343 342 341 342 343
289 292 295 291 287 288 301 310 313 314 313 313 312 313 314 316 318 317 315 316 316 317 318 317 316 317 317 317 317 318 319 321 321 321 322 323 324 325 327 328 329 329 330 330 330 330 332 334 335 337 339 340 341 342 343 344 344 342 342 341 341 342 341
288 288 287 283 284 296 304 307 313 315 312 310 307 307 312 314 316 317 314 315 316 317 317 318 319 317 317 317 316 316 318 319 319 320 321 322 323 323 324 325 325 327 328 328 329 328 331 330 331 332 333 335 336 338 341 340 339 340 339 339 339 339 338
286 286 285 288 295 296 302 302 306 304 301 301 301 296 301 310 315 317 315 315 316 316 317 317 317 317 317 315 313 315 317 318 319 320 320 322 322 323 323 324 324 326 327 327 328 328 327 327 327 328 330 331 331 330 334 335 335 335 336 335 336 336 336
289 287 285 287 287 286 293 300 305 308 308 308 307 303 299 305 314 318 316 314 315 316 315 315 314 311 307 307 309 314 317 317 318 319 320 320 321 321 322 324 324 324 325 325 327 326 325 325 326 328 329 328 327 326 330 332 333 333 333 333 334 335 335
288 287 285 284 284 287 296 300 303 307 308 310 309 299 293 300 311 317 316 315 316 315 314 312 312 304 302 304 308 314 318 315 317 317 318 319 319 320 320 321 322 323 323 324 324 324 324 323 325 326 327 327 325 324 324 324 325 326 329 333 334 334 335
289 284 282 286 287 292 299 300 303 307 308 307 300 290 290 301 311 316 316 315 315 314 313 311 308 304 301 303 308 314 316 314 315 315 315 316 317 318 319 319 319 319 320 319 319 319 319 321 324 324 324 324 325 323 324 324 323 323 324 325 328 332 334
292 293 286 287 291 299 303 303 304 306 307 299 289 285 297 306 312 316 317 316 315 314 313 313 310 309 307 308 312 314 313 313 313 314 315 315 317 317 318 318 320 316 315 315 315 316 317 320 322 323 323 322 322 323 323 322 322 323 324 326 327 329 331
289 284 286 288 288 295 301 303 306 308 302 289 288 295 300 311 315 318 319 316 316 316 316 312 310 310 312 315 312 312 311 311 311 312 312 313 314 315 319 321 319 313 313 312 312 313 314 316 320 322 322 322 322 322 321 321 323 326 326 326 327 327 328
289 284 285 285 283 297 305 306 304 306 296 294 296 304 313 316 317 318 316 316 315 315 312 313 313 313 312 312 311 311 311 311 310 310 311 311 311 312 313 313 316 313 310 310 310 310 311 313 315 319 323 322 320 319 317 320 324 326 324 323 325 326 327
285 285 285 285 290 297 302 303 297 300 303 305 306 311 312 315 316 314 313 313 315 315 314 313 313 312 311 311 311 311 311 311 311 311 311 311 312 312 313 314 314 314 309 309 309 309 310 311 311 313 318 320 320 318 315 319 324 325 322 322 323 324 326
290 288 288 293 296 300 304 304 303 305 311 311 313 315 314 315 314 314 313 313 315 316 315 314 312 311 312 311 311 311 310 310 310 310 310 310 311 311 311 313 314 311 308 308 308 309 310 311 311 312 313 317 319 316 316 322 324 324 323 324 322 320 320
298 299 299 303 305 307 309 310 310 312 314 315 316 318 316 314 316 316 314 314 315 315 315 313 312 312 311 311 310 310 310 310 311 312 310 310 311 311 311 310 312 309 308 308 308 308 309 311 311 315 313 314 315 315 319 321 323 324 325 325 323 321 320
293 293 299 303 306 305 309 310 311 312 312 312 314 315 315 316 317 317 317 316 316 315 315 314 312 311 312 310 310 310 309 309 309 310 309 309 310 311 312 315 313 309 308 308 309 309 309 310 312 313 313 315 315 317 320 320 322 325 326 325 326 324 323
292 294 299 302 303 304 305 305 310 311 311 313 314 314 316 317 318 318 318 318 316 316 314 314 313 312 312 311 310 309 309 309 308 308 309 309 310 310 310 313 311 307 307 308 310 311 311 310 310 312 312 313 313 315 317 319 321 325 326 324 321 321 322
298 300 301 302 305 307 306 307 309 309 312 315 314 315 317 318 318 317 318 319 318 317 316 316 314 313 312 312 311 310 309 308 308 308 308 309 310 309 309 312 313 306 311 312 311 313 311 309 309 310 311 312 313 314 316 317 320 323 324 324 321 319 320
295 298 301 303 301 299 303 306 309 310 311 314 313 314 316 317 317 317 317 318 320 319 318 317 316 314 313 312 311 310 310 309 309 308 309 310 310 311 311 312 311 314 315 309 311 313 311 310 311 312 311 311 313 314 316 316 318 322 324 321 319 319 320
296 300 303 307 303 303 307 309 309 309 311 314 314 314 314 314 316 317 317 316 316 318 318 318 318 316 315 313 312 311 310 310 309 309 310 311 311 311 313 311 311 310 311 316 315 315 312 315 314 313 314 312 312 314 314 314 316 318 319 321 319 319 323
300 303 306 306 302 304 306 308 309 310 311 314 313 311 313 315 316 317 318 318 316 314 316 318 319 318 317 315 313 312 312 312 311 311 310 311 312 313 314 311 311 313 314 315 315 315 311 314 312 312 313 312 312 314 314 313 314 315 317 320 318 319 320
302 302 307 306 304 306 308 309 309 310 312 314 312 311 312 314 314 317 316 315 316 317 316 315 316 318 317 315 314 314 314 314 314 312 315 318 317 314 313 313 313 315 315 315 313 311 310 312 315 315 312 313 312 313 314 314 315 317 316 317 316 316 320
Wind_Speed
4 3 9 2 13 8 6 3 3 4 1 8 6 2 2 4 3 3 2 6 4 7 2 7 7 9 10 2 5 8 8 10 12 12 12 12 11 11 11 11 11 12 11 11 11 12 11 10 10 11 11 12 13 11 11 11 11 10 11 11 11 10 9
2 1 3 8 1 4 7 3 7 1 2 5 5 3 1 3 2 2 2 4 4 4 2 9 13 13 10 8 0 4 6 8 12 12 12 12 11 11 12 12 12 13 13 13 12 11 12 13 13 13 12 12 11 11 12 13 11 12 12 11 11 10 10
7 6 6 5 1 3 8 8 4 5 1 1 2 5 1 1 1 2 2 2 3 1 4 9 13 13 12 11 5 2 6 8 10 9 10 10 10 9 9 10 10 10 11 12 13 13 12 12 12 13 13 12 10 10 10 12 13 14 13 10 9 8 9
3 3 4 4 4 3 3 3 4 1 3 3 4 5 4 5 2 2 3 2 1 1 4 9 11 13 12 10 7 5 6 8 8 8 8 8 9 9 9 10 10 11 12 13 13 13 12 12 11 10 11 9 11 11 11 11 11 9 9 9 9 9 9
3 3 3 2 3 2 5 4 1 1 1 2 5 1 2 3 5 4 2 2 0 2 5 8 10 11 11 10 8 5 4 5 6 7 7 6 7 6 7 8 9 10 10 10 9 9 8 7 7 8 9 10 11 10 11 11 11 10 10 10 9 9 8
4 2 2 3 4 6 4 5 3 3 4 3 2 4 2 2 2 3 3 4 1 2 5 6 8 9 9 10 5 2 1 0 1 1 2 5 6 4 5 6 8 8 7 8 8 7 7 7 7 9 9 8 8 9 10 10 9 9 10 10 9 9 8
1 1 6 3 4 2 4 4 4 0 1 5 3 2 3 2 1 4 2 3 0 3 7 7 7 7 9 9 8 6 6 6 7 5 5 3 4 5 4 4 5 6 8 9 10 11 10 11 10 11 8 9 9 8 8 8 10 10 10 10 10 9 9
6 6 3 3 1 4 3 2 3 5 3 1 4 4 4 5 0 0 1 0 1 4 8 7 7 8 8 8 9 8 7 5 6 6 4 5 7 7 8 7 7 7 5 2 6 7 8 7 8 10 10 10 9 8 7 6 9 11 10 9 9 9 9
5 7 7 2 2 5 3 2 5 3 4 1 3 2 0 3 0 1 3 2 1 3 6 6 8 9 10 10 9 7 7 5 5 4 5 7 6 8 8 8 8 8 7 5 2 1 4 5 5 7 8 9 9 8 8 9 8 8 8 8 9 9 9
1 1 2 3 6 6 5 1 9 6 6 3 1 1 1 2 0 2 4 2 2 1 6 8 9 8 9 9 9 8 7 6 6 5 6 6 6 7 7 5 6 6 6 5 4 3 2 3 4 5 5 5 5 5 7 8 8 7 6 5 7 8 8
3 4 4 7 2 4 6 9 8 12 6 3 1 4 4 5 4 4 1 1 4 7 7 7 8 8 9 8 8 7 6 7 6 6 5 5 6 7 8 7 5 5 4 4 5 4 3 4 4 5 4 2 2 4 6 6 7 9 9 8 8 9 9
2 3 4 4 3 4 2 7 10 11 13 6 4 1 2 5 10 2 2 2 4 4 6 6 6 7 7 7 6 6 5 5 6 6 6 8 9 6 2 5 7 7 6 4 3 4 4 4 3 1 0 5 6 6 7 6 7 8 8 10 10 10 10
1 2 3 2 4 5 4 6 8 13 11 13 8 4 2 3 3 8 7 6 5 3 4 3 4 6 7 7 4 3 1 4 6 4 2 3 5 2 3 2 3 3 6 7 5 4 5 7 8 10 10 10 9 7 7 7 7 9 9 10 11 11 10
4 4 5 2 5 3 7 9 9 8 11 11 10 9 3 7 10 11 11 10 8 4 2 4 5 4 5 3 4 4 6 7 7 6 3 4 5 4 2 3 4 4 2 1 3 6 7 7 7 7 9 10 11 11 9 8 8 8 8 10 10 10 10
2 2 2 3 4 7 9 7 9 9 6 8 10 8 8 10 11 10 10 10 6 1 2 4 2 4 5 6 8 8 8 9 9 9 8 9 8 8 7 7 5 5 6 5 3 4 6 6 6 5 6 7 8 9 9 9 8 7 6 5 4 6 5
0 3 2 6 3 5 8 6 8 8 6 6 6 4 4 2 6 7 7 6 3 3 2 3 7 7 8 8 8 8 9 10 10 10 9 8 7 8 7 6 6 6 6 6 6 6 6 5 5 5 5 6 7 10 9 10 8 7 6 7 7 7 7
2 1 6 6 6 6 5 3 3 0 1 2 4 5 8 6 2 1 3 4 2 1 2 6 6 6 7 7 7 6 8 8 9 10 10 11 9 7 7 7 6 6 6 5 6 6 5 5 5 4 3 5 8 8 9 9 8 11 12 10 9 6 5
3 1 4 3 2 1 2 2 2 3 3 3 5 4 5 5 2 2 2 4 5 3 4 5 3 6 5 3 4 6 5 6 9 11 11 10 10 9 8 8 9 8 7 7 7 8 8 8 7 6 4 4 5 5 5 4 6 8 10 11 12 9 4
3 2 2 3 2 5 2 1 3 6 7 5 8 6 5 4 5 7 7 6 6 6 6 6 5 4 5 8 9 9 8 7 7 9 8 8 8 10 11 11 10 9 8 8 8 9 8 7 7 6 6 6 5 3 3 3 3 5 6 8 8 9 8
3 4 1 2 4 3 3 2 2 3 3 4 4 3 2 2 3 4 5 5 6 7 7 5 2 4 6 7 8 9 9 8 7 8 8 8 9 9 8 8 8 7 7 8 8 8 8 9 9 9 7 8 9 8 2 4 5 5 6 5 4 5 6
3 2 4 1 3 2 1 1 1 2 2 1 1 1 2 4 2 2 6 6 6 6 6 5 5 4 5 7 6 8 8 8 7 7 7 7 7 7 8 8 8 7 7 8 8 7 9 10 10 10 8 8 7 10 9 5 10 9 9 8 7 7 6
4 6 3 2 1 1 6 6 4 2 3 2 4 2 1 2 4 5 7 7 7 8 6 5 1 2 5 6 4 6 7 7 6 7 7 8 8 8 7 7 7 7 7 7 8 8 10 11 10 8 9 9 12 10 6 10 11 9 8 8 7 8 8
3 4 5 3 4 5 6 6 3 2 0 5 4 2 2 3 8 8 9 9 8 9 8 4 1 2 2 2 4 4 4 5 5 6 7 7 7 7 7 7 7 8 8 8 8 10 11 12 10 9 9 10 11 10 10 10 10 10 8 6 6 6 7
1 5 3 2 3 1 2 6 3 1 1 0 2 1 3 5 7 8 9 10 10 8 5 5 3 4 3 5 5 1 2 4 4 5 6 6 7 7 7 7 7 7 7 10 11 10 10 9 8 8 8 10 11 10 9 10 11 10 8 7 6 5 6
2 5 0 2 3 3 3 2 4 1 1 3 2 3 3 2 8 7 8 9 8 6 6 4 2 5 3 4 4 2 2 5 6 6 5 6 6 7 7 7 7 7 8 8 8 8 7 8 8 7 7 9 9 8 8 10 9 7 6 5 5 6 5
2 2 3 4 3 5 2 2 0 0 3 1 4 5 1 4 6 4 5 6 5 6 7 4 3 3 4 7 5 5 4 5 3 4 5 6 8 7 6 7 6 6 7 9 10 10 9 9 8 7 8 9 8 8 9 9 7 4 4 4 3 4 6
2 3 3 1 1 1 2 3 3 1 2 5 4 2 2 2 7 7 5 5 5 8 5 4 7 7 6 7 7 6 4 5 5 5 6 6 6 6 7 8 7 6 8 8 8 8 7 7 7 7 9 9 9 9 11 9 6 5 5 5 6 7 7
3 2 2 2 3 2 1 4 4 4 4 1 3 3 4 2 5 5 6 2 5 7 11 9 7 6 7 5 6 6 5 6 5 5 5 5 5 5 6 6 5 6 7 6 7 8 8 8 8 8 8 9 8 10 10 8 6 6 6 7 6 8 7
2 3 3 2 4 4 3 4 3 2 1 1 4 5 4 5 2 2 6 6 5 8 10 9 9 6 4 6 6 7 5 5 5 5 3 4 5 5 6 5 4 6 6 6 6 8 7 8 8 8 8 9 10 10 8 6 8 7 7 7 7 7 7
2 1 4 2 1 0 0 1 2 2 2 2 2 6 5 2 3 4 8 7 8 7 8 11 4 6 7 7 4 6 6 6 5 3 3 4 4 5 5 5 5 4 5 6 7 7 7 7 7 6 7 8 9 5 5 5 5 6 7 8 8 7 7
4 1 2 1 0 2 1 1 2 1 2 2 2 5 4 4 6 7 8 10 9 8 6 8 9 7 6 6 4 4 5 6 5 5 4 2 2 3 4 2 2 3 4 5 5 5 6 7 6 6 7 7 5 5 6 6 5 5 7 7 6 5 6
2 2 2 2 3 3 3 2 1 3 3 4 3 3 4 5 5 8 8 9 8 6 7 8 10 7 6 8 6 5 4 4 5 5 5 4 2 1 1 2 3 3 4 3 3 4 5 5 6 6 6 6 6 6 6 5 5 5 6 5 6 5 5
1 1 2 1 1 1 1 1 1 1 5 6 4 4 6 7 8 7 5 5 8 6 8 7 9 8 4 5 7 7 5 4 3 4 4 4 4 4 3 1 1 4 2 4 3 3 2 3 4 5 5 6 6 7 6 5 5 6 6 5 5 5 4
2 6 6 5 4 2 3 4 5 4 3 6 6 5 6 6 7 6 7 5 3 5 7 8 8 9 6 4 5 7 6 6 5 4 3 3 3 3 2 2 2 2 3 4 4 3 2 3 4 4 4 5 5 6 6 5 5 5 4 4 5 5 4
5 8 6 9 4 2 5 8 5 3 3 6 8 6 6 4 5 6 8 7 5 5 3 4 7 7 7 6 4 4 5 5 5 4 5 4 2 2 1 1 1 2 2 2 2 3 1 2 3 4 4 5 4 5 5 5 5 5 4 4 4 4 4
3 5 10 9 4 6 5 5 5 6 4 5 7 4 4 7 7 6 6 6 7 4 4 2 2 7 6 6 6 5 2 2 3 2 2 1 1 1 1 1 1 0 1 2 2 2 1 2 2 3 4 4 4 5 4 4 4 5 5 4 4 3 3
3 3 7 6 2 1 2 5 4 3 3 4 9 7 8 7 4 6 8 5 5 8 6 4 3 3 7 7 5 5 5 2 2 3 3 2 2 2 3 3 3 2 1 1 2 3 4 3 2 3 4 3 4 4 5 5 5 4 4 4 4 3 3
Wind_Direction
194 228 142 193 147 161 202 106 217 213 210 99 107 65 56 99 61 222 181 299 301 296 333 3 6 21 14 3 160 164 166 172 177 185 184 183 183 182 183 184 184 184 183 186 187 186 185 184 181 184 184 183 185 183 185 191 193 189 191 194 193 193 192
318 153 147 163 354 161 98 175 233 189 124 113 120 140 332 59 171 265 151 243 311 20 235 348 346 2 0 360 31 163 164 165 182 191 189 183 184 185 185 185 184 182 183 184 188 191 188 186 186 187 188 188 187 185 185 188 189 192 196 194 194 193 192
283 347 96 63 348 5 153 190 174 120 261 271 338 96 59 114 284 275 289 260 260 136 290 346 332 338 336 329 312 157 170 180 188 193 194 187 179 177 183 185 182 183 183 187 189 191 191 191 191 190 189 185 184 188 189 188 193 197 194 192 192 193 193
304 14 56 163 302 319 31 110 103 30 107 158 140 198 167 116 214 54 288 33 196 73 336 317 324 328 321 317 298 233 195 188 188 190 192 185 185 183 180 180 183 184 188 190 189 189 190 190 191 192 188 185 188 191 187 194 200 198 196 197 192 193 194
56 10 345 189 162 93 347 21 304 243 23 220 106 39 109 180 169 185 188 303 336 46 329 331 329 330 329 313 271 249 216 192 189 187 184 182 183 188 183 178 179 184 186 187 189 192 195 194 192 188 186 190 194 189 192 195 192 191 195 199 194 199 190
28 199 255 226 189 173 153 160 216 175 118 128 142 246 357 83 101 207 135 241 268 334 345 337 324 339 347 347 278 217 350 351 138 96 162 170 170 176 170 167 169 173 164 164 165 161 160 161 160 183 191 187 197 199 200 196 194 194 196 197 197 195 192
119 204 280 299 275 51 119 107 358 264 214 103 92 147 256 47 25 99 150 108 220 16 359 352 354 5 21 14 22 57 43 73 103 106 89 69 140 149 147 143 134 143 159 162 164 168 172 176 180 183 175 182 191 201 208 204 195 200 196 198 197 192 190
291 300 269 308 321 101 43 360 36 27 320 215 174 177 180 135 314 38 9 85 245 9 4 351 359 12 31 31 35 56 62 69 115 133 96 77 79 75 81 72 66 57 44 87 153 162 164 165 167 176 186 189 184 180 191 206 215 207 199 195 191 190 191
338 337 349 3 338 66 73 334 335 309 298 239 202 109 67 93 310 160 124 222 266 6 8 11 6 23 36 40 37 42 66 59 67 80 92 82 78 81 80 101 117 112 107 99 75 149 172 168 165 173 180 187 186 184 177 189 208 220 214 197 188 192 193
133 286 309 325 327 316 304 25 340 352 356 0 63 188 25 134 289 86 92 145 237 73 35 26 12 18 41 48 48 51 49 67 80 81 87 89 97 103 103 101 111 122 128 120 118 129 158 177 181 187 185 176 179 185 188 186 190 191 202 202 197 190 191
177 224 239 269 233 355 40 313 356 351 351 10 115 100 107 183 176 88 316 134 105 50 35 29 2 3 31 51 45 39 52 54 61 68 60 82 110 136 143 150 137 94 91 123 141 156 181 189 187 195 177 143 190 196 199 193 189 183 179 184 194 195 190
189 223 218 282 81 98 18 19 360 0 11 359 51 101 192 166 111 21 264 165 107 72 55 36 360 354 21 50 44 47 47 56 63 51 44 34 8 358 111 154 168 166 161 159 161 176 171 184 182 89 326 205 206 204 210 202 188 182 183 183 189 196 195
108 70 28 2 79 75 75 48 22 26 9 28 52 4 333 61 141 165 168 131 104 78 54 18 349 353 54 49 56 58 31 72 81 78 71 101 128 149 290 259 235 173 176 183 177 180 200 191 194 182 181 202 216 212 209 201 190 195 185 186 190 193 197
49 27 51 340 91 91 56 39 36 27 33 39 50 61 54 94 94 106 112 99 90 79 28 326 357 48 61 31 23 33 26 34 51 67 45 45 65 68 32 336 329 331 314 238 206 216 220 218 218 205 193 194 201 203 205 197 197 198 179 191 188 192 197
43 334 115 106 65 73 62 31 38 31 40 38 23 39 45 81 93 101 109 103 98 48 308 323 66 36 32 37 35 31 35 41 48 51 41 31 22 19 20 14 5 353 345 342 330 292 279 270 260 239 220 208 209 208 203 198 198 185 177 150 84 40 9
322 302 1 4 7 76 79 40 20 18 19 54 15 25 339 320 128 125 104 93 118 218 269 106 59 44 35 28 21 25 31 40 45 49 46 37 27 22 24 26 27 13 355 346 332 307 297 295 278 258 246 230 216 213 203 194 177 142 114 106 124 172 166
263 283 35 345 348 27 13 343 317 269 93 116 117 51 38 34 10 78 113 138 116 115 26 70 44 39 38 30 13 8 12 24 41 43 39 32 32 48 47 41 32 21 8 6 6 352 339 335 325 302 278 245 230 223 216 209 168 146 136 150 174 175 153
227 343 359 7 50 291 242 238 265 202 154 198 96 61 43 42 59 114 63 108 127 118 69 80 49 44 28 19 21 21 13 19 39 42 38 32 33 31 35 39 37 27 25 27 24 20 15 6 353 334 356 328 295 271 244 214 174 162 154 159 163 161 208
152 66 37 42 230 232 257 318 52 89 93 89 79 79 66 56 86 84 81 91 85 67 84 94 91 80 59 41 29 17 17 26 46 49 37 32 33 34 39 44 39 36 29 29 27 23 16 10 10 7 7 348 328 321 299 228 183 158 154 154 156 151 138
75 73 96 137 242 251 305 342 61 104 98 99 95 78 84 9 55 95 108 110 97 104 106 108 112 90 77 57 33 20 15 21 29 46 40 37 41 39 31 42 36 29 23 24 24 19 5 16 9 15 13 16 17 340 335 109 79 73 87 90 95 107 113
151 164 138 208 311 335 16 358 265 192 225 167 185 241 254 197 148 189 130 125 126 121 126 124 99 68 64 57 25 17 23 19 30 48 44 37 36 41 37 36 38 24 27 33 31 33 32 28 22 16 7 16 24 33 354 49 78 68 77 73 72 73 67
117 125 64 19 12 253 260 234 272 274 244 186 153 111 289 270 191 146 146 152 150 148 144 142 124 26 48 27 342 351 11 16 29 49 55 48 43 38 33 30 31 25 25 30 33 38 36 33 23 15 15 30 38 28 26 63 61 67 68 77 81 82 74
71 71 125 187 166 242 207 229 240 280 91 123 139 77 303 244 178 161 159 164 168 163 167 180 35 56 83 254 264 296 345 17 24 57 50 51 46 44 39 30 27 17 15 18 22 30 36 33 15 14 28 40 49 40 26 50 62 53 36 39 61 84 96
95 129 96 194 202 171 224 223 257 238 72 92 59 57 275 218 177 157 158 170 175 180 159 137 104 119 160 212 227 251 9 58 46 57 55 45 42 42 33 31 25 25 18 23 24 20 22 13 7 20 31 49 48 41 35 43 50 48 37 16 10 36 64
132 115 219 328 302 271 263 249 253 322 149 71 76 178 245 182 152 158 159 173 179 163 151 150 136 233 200 175 152 135 111 76 49 41 49 58 53 49 38 29 24 31 26 29 23 19 12 9 15 20 36 54 47 41 36 42 39 36 38 23 22 27 45
123 179 123 209 240 240 209 273 176 15 78 84 198 237 201 131 115 142 150 155 154 149 147 162 174 160 159 121 113 103 88 97 87 56 50 57 52 42 41 41 37 34 35 28 20 13 13 15 15 19 37 50 43 40 41 32 12 355 38 47 43 56 51
75 38 75 14 165 255 155 114 50 25 138 226 213 140 28 88 108 110 85 116 143 136 132 153 132 133 133 129 126 119 109 88 69 52 52 54 55 42 32 34 27 44 49 33 24 10 0 14 20 16 37 44 32 30 31 4 342 3 35 45 52 53 52
138 122 136 189 215 220 231 144 184 224 199 199 181 140 81 51 106 110 110 102 158 152 134 139 127 129 123 107 117 103 88 81 65 61 59 58 61 53 43 47 38 50 61 46 42 20 10 18 26 29 39 47 38 34 13 341 358 30 43 45 49 55 55
123 190 213 246 233 212 240 184 231 235 278 204 201 122 128 125 70 116 106 116 122 133 128 125 131 122 133 140 141 126 119 98 89 85 61 61 68 63 57 39 36 50 56 54 47 38 25 23 24 30 33 47 41 30 352 353 11 27 40 45 53 52 51
235 243 201 258 288 14 32 161 217 195 122 63 95 109 103 62 147 147 128 132 123 123 129 122 107 126 147 130 106 100 109 109 101 88 68 51 58 62 61 47 41 40 44 45 44 42 27 18 24 31 33 45 47 359 347 15 27 43 50 49 46 42 40
75 154 316 60 118 315 343 74 55 55 92 82 122 96 99 127 117 108 122 129 132 136 134 127 132 135 136 117 109 112 121 124 126 126 122 118 108 109 95 78 71 53 62 56 52 48 32 1 11 14 35 38 34 2 18 12 32 65 76 75 71 60 57
111 214 235 267 277 251 253 266 139 104 74 62 54 99 121 118 114 123 127 119 116 128 126 138 132 138 139 132 140 145 149 145 136 142 147 145 110 8 81 86 103 82 70 84 55 41 28 358 2 11 23 21 11 18 17 15 23 58 69 76 77 71 67
299 293 277 283 23 9 331 323 303 208 151 117 97 100 110 112 110 112 112 127 146 141 139 134 129 129 156 152 155 151 153 140 146 164 166 158 149 141 116 152 128 125 122 77 42 58 32 343 7 25 21 12 6 15 12 14 29 61 69 67 67 60 51
166 180 197 153 119 240 256 255 207 191 196 123 118 106 99 112 117 125 117 85 91 119 141 144 139 145 156 167 153 155 163 166 169 172 176 172 146 151 182 135 155 145 121 136 107 75 358 354 28 44 31 12 2 2 7 15 37 65 63 73 73 70 66
218 234 211 185 147 159 192 184 198 199 180 134 127 138 139 135 134 138 125 118 103 113 122 149 142 146 156 165 147 131 161 184 178 171 159 156 187 183 170 120 32 72 94 128 136 115 37 351 27 16 17 11 8 5 7 10 40 64 73 77 70 55 62
248 205 180 180 152 166 189 199 173 179 194 150 128 131 136 144 149 145 136 146 139 138 126 114 138 153 149 156 153 166 169 146 152 165 165 146 138 161 175 168 180 36 351 352 27 4 151 123 42 360 4 354 350 347 2 17 48 62 48 71 75 49 47
207 213 166 161 134 76 97 137 144 167 179 161 139 152 144 135 143 143 135 136 144 141 139 126 87 137 150 157 156 155 155 159 165 155 138 133 145 150 172 168 190 200 218 252 273 299 328 339 44 52 357 324 329 326 348 357 21 31 47 63 69 39 31